Weather Roundup
Issued by NWS

Home | Current Version | Previous Version | Graphics & Text | Print | Product List | Glossary On
Versions: 1 2 3 4 5 6 7 8 9 10 11 12 13 14 15 16 17 18 19 20 21 22 23 24 25 26 27 28 29 30 31 32 33 34 35 36 37 38 39 40 41 42 43 44 45 46 47 48 49 50
387
NZUS93 KARX 030110
HRRWXR

CURRENT HOURLY OBSERVATIONS ACROSS
MUCH OF THE UPPER MISSISSIPPI VALLEY
NATIONAL WEATHER SERVICE LA CROSSE WI
800 PM CDT MON MAY 02 2016


...SOUTHEAST MINNESOTA...


CITY           SKY/WX    TMP DP  RH WIND       PRES   REMARKS
ROCHESTER      CLOUDY    58  43  57 SW9       30.02F
ROCHESTER/MAYO FAIR      62  36  37 W9        30.02S
WINONA         CLEAR     61  36  39 CALM      30.01S
AUSTIN         CLEAR     55  39  54 S5        30.02S
ALBERT LEA     CLEAR     59  37  44 S2        30.02S
DODGE CENTER   CLEAR     55  37  50 SW3       30.02S
PRESTON        PTCLDY    56  39  52 S5        30.03S
OWATONNA       PTCLDY    61  36  39 W3        30.01S
FARIBAULT      CLEAR     61  32  33 SW2       30.01S
$$

...ELSEWHERE IN MINNESOTA...


CITY           SKY/WX    TMP DP  RH WIND       PRES   REMARKS
MINNEAPOLIS    PTCLDY    64  27  24 W7        30.00S
INTNL FALLS    CLEAR     62  26  25 NW6       29.93S
DULUTH         PTCLDY    59  30  33 S5        29.97S
RED WING       PTCLDY    61  37  41 CALM      29.99S
REDWOOD FALLS  CLEAR     62  33  33 S6        29.99S
MANKATO        CLEAR     61  34  36 SW7       30.01S
WORTHINGTON      N/A     60  39  45 CALM      30.02S
FAIRMONT       CLEAR     61  37  41 SW5       30.02S
$$

...SOUTHWEST WISCONSIN...


CITY           SKY/WX    TMP DP  RH WIND       PRES   REMARKS
LA CROSSE      PTCLDY    61  36  39 SW3       30.01R
PRAIRIE DU CHI CLOUDY    58  39  49 S3        30.02S
BOSCOBEL       CLOUDY    59  39  47 CALM      30.02S
LONE ROCK      CLOUDY    59  39  47 CALM      30.01S
PLATTEVILLE    CLOUDY    58  40  51 CALM      30.02S
FORT MC COY    CLOUDY    59  36  41 CALM      30.02S
MAUSTON-NEW LI MOCLDY    56  40  53 CALM      30.00S
VIROQUA        CLOUDY    58  34  39 CALM      30.02S
WIS DELLS      CLOUDY    58  34  40 SW3       30.00S
$$

...ELSEWHERE IN WISCONSIN...


CITY           SKY/WX    TMP DP  RH WIND       PRES   REMARKS
MILWAUKEE      PTCLDY    48  32  53 CALM      30.03S
MADISON        PTCLDY    55  34  45 CALM      30.01R
GREEN BAY      CLEAR     55  37  50 SE8       30.00S
EAU CLAIRE     MOCLDY    60  35  39 SW3       30.00R
BLACK RVR FLS  CLOUDY    61  32  33 CALM      30.00S
MEDFORD        MOCLDY    55  39  54 CALM      30.00S
WAUSAU         PTCLDY    60  34  37 W3        29.98R
WIS RAPIDS     CLEAR     58  31  35 NW3       30.01S
MARSHFIELD     CLEAR     59  33  37 W3        30.00R
RICE LAKE      PTCLDY    61  31  31 SW5       30.01S
$$

...NORTHEAST IOWA...


CITY           SKY/WX    TMP DP  RH WIND       PRES   REMARKS
WATERLOO       CLOUDY    56  40  55 SW6       30.03S
DUBUQUE        CLOUDY    55  42  61 SW3       30.03S
DECORAH        CLOUDY    59  37  44 CALM      30.02S
MASON CITY     CLEAR     57  41  55 S5        30.04S
CHARLES CITY   PTCLDY    57  41  54 S5        30.04S
OELWEIN        MOCLDY    55  45  67 SW6       30.04S
$$

...ELSEWHERE IN IOWA...


CITY           SKY/WX    TMP DP  RH WIND       PRES   REMARKS
DES MOINES     PTCLDY    57  42  57 SE6       30.05R
IOWA CITY      CLOUDY    53  46  77 W3        30.05S
FORT DODGE     CLEAR     57  39  51 CALM      30.04S
MARSHALLTOWN   MOCLDY    55  43  63 SE3       30.04R
CEDAR RAPIDS   CLOUDY    54  48  80 SW3       30.03S
$$

...NORTHERN ILLINOIS...


CITY           SKY/WX    TMP DP  RH WIND       PRES   REMARKS
CHICAGO-OHARE  PTCLDY    52  31  44 NE7       30.01S
CHICAGO-MIDWAY MOCLDY    54  31  41 N9        30.02S
MOLINE         CLOUDY    56  45  66 CALM      30.03R
ROCKFORD       CLOUDY    58  35  42 CALM      30.04R
PEORIA         CLOUDY    55  45  68 NW3       30.01F
$$

NOTE: "FAIR" INDICATES FEW OR NO CLOUDS BELOW 12,000 FEET WITH NO
SIGNIFICANT WEATHER AND/OR OBSTRUCTIONS TO VISIBILITY. WIND
SPEEDS ARE IN MILES-PER-HOUR.




USA.gov is the U.S. government's official web portal to all federal, state and local government web resources and services.